Temp
1 1 1 1 2 2 2 2 2 2 2 3 3 2 3 3 3 3 3 3 4 4 5 5 5 6 6 6 8 6 6 7 7 7 7 7 6 6 6 6 6 5 6 6 6 7 7
0 1 1 1 1 1 1 2 2 2 2 2 3 3 2 3 3 3 3 3 3 3 4 4 5 5 6 6 7 6 7 7 7 7 7 6 7 6 6 6 6 6 6 6 7 7 7
-0 0 0 0 0 0 1 1 1 1 1 2 1 2 2 2 3 3 3 3 3 3 3 4 4 5 5 7 6 6 6 7 7 7 7 6 6 5 5 6 5 5 6 7 7 7 7
-0 -0 -0 -0 -0 -0 0 0 0 1 1 1 1 2 1 2 3 3 3 3 3 3 3 3 3 4 5 6 6 6 6 7 7 7 6 6 5 5 5 5 5 5 5 7 8 7 7
-1 -1 -1 -1 -0 -0 -0 -0 -1 -0 0 0 0 1 1 1 2 2 2 2 3 3 3 3 3 3 6 7 6 6 6 7 7 6 6 5 5 5 4 4 4 5 5 7 8 7 7
-2 -2 -1 -1 -1 -1 -1 -1 -1 -1 -1 -0 -0 -0 0 1 1 1 1 2 3 3 3 3 3 3 5 6 5 5 5 6 6 6 5 4 4 4 4 4 4 5 5 6 6 8 7
-2 -2 -2 -2 -2 -2 -2 -1 -1 -1 -1 -0 -1 -2 -1 -0 -0 -1 0 1 2 2 3 3 4 5 4 5 6 5 5 5 6 6 6 5 3 6 6 5 5 6 5 6 6 7 7
-3 -3 -3 -3 -3 -3 -3 -2 -3 -2 -2 -2 -2 -2 -2 -1 -2 -2 -2 -1 1 2 3 3 4 5 5 4 4 5 4 4 5 6 6 3 3 7 5 5 4 5 5 6 7 7 6
-3 -3 -3 -3 -3 -3 -3 -3 -3 -3 -3 -3 -3 -3 -3 -2 -2 -3 -3 -2 -1 -0 1 5 4 4 6 4 4 5 3 3 4 5 6 5 8 6 5 4 4 4 5 6 6 7 6
-4 -4 -4 -4 -4 -4 -3 -3 -3 -3 -3 -4 -4 -3 -3 -3 -3 -3 -3 -3 -2 -2 -1 3 4 5 5 5 5 5 5 3 3 4 5 4 6 5 5 4 4 4 6 6 6 5 5
-5 -5 -5 -4 -4 -4 -4 -4 -4 -4 -4 -4 -5 -4 -4 -4 -4 -3 -4 -4 -3 -4 -4 3 3 3 3 4 4 4 6 4 3 3 4 4 6 5 4 7 4 5 6 6 6 6 6
-6 -5 -5 -5 -5 -5 -5 -5 -5 -5 -5 -5 -5 -5 -5 -5 -4 -5 -5 -5 -5 -4 -5 1 1 2 2 3 2 3 5 4 3 2 3 4 5 4 5 6 4 6 5 5 5 5 4
-7 -7 -6 -7 -6 -6 -6 -6 -6 -6 -6 -6 -6 -7 -7 -6 -5 -6 -5 -5 -6 -6 -1 0 0 -1 1 2 3 3 4 3 2 1 1 2 3 4 4 4 4 5 4 4 3 3 2
-8 -8 -8 -8 -7 -7 -7 -7 -7 -7 -6 -7 -8 -8 -8 -7 -7 -6 -6 -7 -6 -4 -3 -0 -0 0 -0 0 1 2 2 2 2 2 2 1 2 3 4 4 5 5 5 4 4 2 3
-8 -8 -8 -8 -8 -8 -7 -7 -7 -7 -7 -8 -8 -8 -8 -8 -8 -7 -7 -7 -6 -5 -4 -3 -1 -1 0 -0 0 1 2 3 3 2 2 3 2 4 5 5 4 5 5 6 5 3 2
-8 -8 -8 -8 -8 -8 -8 -7 -7 -7 -8 -9 -7 -7 -7 -8 -7 -7 -8 -5 -6 -5 -4 -4 -3 -2 -2 -0 -1 -1 1 2 2 2 2 3 3 4 5 4 5 5 6 5 5 2 2
-8 -8 -8 -8 -8 -8 -8 -7 -7 -8 -9 -8 -7 -7 -7 -8 -7 -8 -8 -8 -6 -6 -6 -5 -4 -3 -3 -2 -1 -2 -1 1 2 1 2 2 3 4 5 4 5 5 5 6 6 6 2
-9 -8 -8 -8 -8 -8 -8 -8 -8 -8 -8 -7 -7 -7 -7 -8 -7 -7 -7 -6 -6 -6 -6 -6 -5 -3 -4 -4 -3 -3 -2 -1 -0 -1 1 2 2 2 4 4 5 5 6 6 6 3 5
-9 -9 -8 -8 -8 -8 -8 -8 -8 -7 -8 -7 -7 -7 -7 -7 -7 -7 -7 -8 -7 -6 -5 -6 -7 -5 -4 -5 -4 -3 -2 -0 -2 -1 0 2 2 2 3 4 4 4 5 5 5 6 5
-9 -9 -8 -8 -8 -7 -7 -7 -7 -7 -7 -8 -7 -7 -7 -7 -7 -6 -8 -8 -8 -7 -6 -6 -6 -6 -6 -5 -4 -3 -2 -1 -2 -2 -1 1 2 2 2 3 4 4 5 6 5 5 5
-9 -9 -8 -8 -7 -7 -7 -7 -7 -7 -7 -7 -7 -7 -7 -8 -7 -6 -8 -8 -8 -8 -8 -6 -7 -7 -6 -7 -5 -4 -2 -2 -2 -2 -1 1 1 2 3 3 3 3 4 5 4 4 6
-9 -9 -9 -9 -9 -8 -7 -7 -7 -7 -7 -8 -8 -8 -7 -7 -8 -8 -8 -8 -8 -8 -8 -7 -8 -6 -7 -6 -5 -4 -3 -2 -2 -2 -1 -1 1 1 3 3 3 3 4 4 4 3 5
-10 -10 -9 -9 -9 -9 -9 -9 -8 -8 -8 -8 -8 -8 -8 -7 -8 -7 -5 -8 -8 -8 -7 -7 -7 -7 -6 -6 -4 -3 -3 -3 -3 -3 -2 -2 -1 2 2 3 3 2 3 3 3 3 3
-9 -9 -9 -9 -9 -9 -9 -9 -9 -8 -8 -8 -8 -8 -8 -7 -7 -6 -8 -7 -8 -8 -7 -6 -6 -6 -4 -5 -6 -5 -5 -4 -3 -2 -2 -2 -2 -1 1 1 -1 2 3 3 4 4 4
-9 -9 -9 -9 -9 -9 -9 -9 -9 -9 -8 -8 -8 -8 -8 -8 -7 -7 -7 -8 -7 -7 -7 -6 -5 -6 -5 -7 -6 -5 -4 -4 -3 -1 -0 -1 -2 -2 -1 1 2 1 3 2 2 3 4
-9 -9 -9 -9 -9 -9 -9 -10 -11 -10 -9 -8 -8 -8 -8 -8 -7 -7 -7 -8 -8 -7 -7 -5 -5 -5 -6 -6 -6 -6 -4 -3 -2 -0 1 0 -1 -1 -1 -1 -3 2 3 3 1 3 4
-9 -9 -9 -8 -9 -9 -9 -9 -10 -10 -10 -9 -9 -8 -8 -7 -8 -7 -7 -7 -7 -7 -6 -5 -4 -5 -6 -6 -6 -5 -5 -4 -2 -1 -0 -1 -1 -1 -1 -1 1 2 3 3 0 2 3
-8 -8 -9 -9 -9 -9 -9 -9 -9 -9 -10 -10 -9 -9 -9 -8 -8 -7 -7 -7 -7 -7 -6 -4 -5 -5 -5 -6 -6 -5 -4 -4 -3 -2 -1 -0 -0 -0 -1 -1 -1 2 3 3 3 2 2
-8 -8 -9 -9 -9 -9 -9 -9 -9 -9 -10 -10 -10 -9 -9 -9 -8 -8 -7 -6 -6 -5 -5 -5 -4 -4 -4 -5 -6 -5 -4 -4 -4 -3 -2 -2 -0 -0 0 0 1 1 2 3 2 -0 2
Height
3101 3101 3100 3100 3099 3099 3099 3098 3097 3097 3097 3097 3098 3098 3097 3097 3097 3098 3098 3098 3098 3096 3096 3095 3095 3096 3098 3099 3105 3101 3103 3104 3104 3105 3105 3105 3105 3105 3104 3107 3107 3105 3106 3106 3105 3105 3104
3095 3094 3093 3093 3093 3092 3092 3091 3091 3090 3089 3089 3089 3090 3090 3090 3090 3091 3091 3092 3092 3091 3089 3088 3088 3088 3089 3093 3096 3094 3097 3098 3099 3100 3100 3101 3101 3103 3101 3101 3102 3102 3101 3101 3100 3101 3101
3088 3087 3086 3085 3085 3085 3084 3084 3084 3084 3083 3082 3082 3082 3081 3082 3082 3083 3085 3086 3086 3084 3083 3082 3081 3080 3079 3090 3087 3088 3090 3093 3093 3094 3095 3096 3097 3097 3096 3097 3099 3098 3097 3097 3097 3097 3097
3079 3079 3079 3078 3077 3076 3075 3076 3075 3076 3075 3075 3075 3075 3075 3073 3074 3075 3077 3078 3079 3078 3076 3075 3074 3071 3068 3082 3080 3082 3081 3086 3087 3089 3091 3092 3091 3092 3091 3093 3094 3095 3095 3092 3093 3094 3094
3071 3070 3070 3070 3069 3069 3068 3068 3067 3067 3067 3067 3067 3068 3069 3067 3066 3068 3070 3071 3071 3071 3070 3067 3068 3066 3066 3071 3072 3073 3075 3078 3079 3083 3086 3086 3085 3086 3088 3089 3089 3091 3089 3089 3089 3091 3090
3063 3062 3063 3062 3062 3060 3059 3059 3059 3060 3059 3060 3060 3060 3061 3060 3059 3061 3063 3064 3063 3062 3062 3061 3060 3065 3067 3066 3065 3067 3067 3069 3071 3075 3080 3080 3080 3080 3080 3083 3079 3084 3087 3086 3087 3088 3087
3053 3053 3053 3054 3054 3053 3052 3052 3053 3053 3052 3052 3053 3054 3054 3053 3053 3055 3057 3058 3060 3058 3053 3054 3051 3052 3061 3060 3060 3061 3062 3064 3064 3067 3070 3073 3074 3068 3071 3078 3080 3082 3084 3083 3084 3084 3083
3044 3044 3045 3044 3044 3044 3045 3044 3046 3045 3045 3046 3047 3048 3048 3046 3049 3051 3051 3050 3049 3048 3042 3042 3044 3040 3051 3057 3051 3059 3056 3060 3060 3061 3063 3067 3062 3068 3073 3077 3079 3079 3080 3080 3080 3081 3081
3033 3034 3034 3035 3034 3036 3035 3037 3038 3038 3038 3040 3042 3042 3041 3040 3045 3046 3047 3046 3043 3041 3036 3031 3036 3030 3039 3047 3040 3049 3052 3054 3055 3056 3055 3055 3059 3063 3067 3070 3073 3073 3074 3077 3078 3077 3076
3022 3022 3023 3024 3024 3025 3027 3027 3029 3030 3030 3032 3033 3035 3034 3034 3041 3040 3042 3041 3040 3039 3036 3021 3026 3023 3027 3032 3023 3041 3044 3051 3049 3048 3053 3052 3057 3059 3058 3062 3068 3068 3070 3073 3074 3076 3073
3011 3011 3012 3013 3013 3015 3016 3018 3019 3020 3022 3024 3026 3027 3029 3029 3034 3037 3037 3038 3039 3040 3040 3023 3019 3016 3018 3022 3023 3027 3034 3040 3038 3043 3048 3042 3049 3051 3054 3058 3062 3063 3068 3069 3071 3070 3070
2998 3000 3001 3003 3003 3005 3006 3008 3009 3011 3014 3016 3018 3020 3022 3022 3030 3031 3031 3037 3038 3044 3029 3018 3017 3016 3017 3020 3020 3022 3024 3028 3035 3041 3040 3040 3047 3046 3049 3055 3058 3063 3065 3066 3066 3066 3065
2987 2988 2990 2992 2993 2995 2997 2998 3000 3002 3005 3009 3011 3014 3015 3016 3027 3025 3029 3034 3039 3032 3018 3016 3017 3015 3015 3018 3019 3020 3023 3022 3027 3034 3030 3036 3037 3041 3045 3050 3054 3058 3063 3063 3062 3061 3059
2977 2978 2980 2981 2983 2985 2987 2989 2992 2994 2997 3001 3005 3008 3009 3012 3017 3020 3025 3030 3026 3011 3012 3013 3014 3014 3014 3016 3016 3018 3019 3019 3021 3026 3026 3030 3031 3033 3035 3039 3048 3048 3053 3056 3056 3057 3055
2967 2968 2970 2971 2973 2975 2978 2980 2982 2985 2989 2994 2999 3001 3003 3007 3010 3013 3019 3018 3005 3004 3010 3011 3012 3013 3012 3014 3016 3014 3015 3015 3017 3020 3026 3026 3025 3027 3027 3035 3043 3042 3042 3050 3051 3050 3052
2957 2958 2959 2960 2962 2964 2966 2968 2971 2976 2981 2988 2991 2994 2994 3001 3005 3007 3008 2998 2998 3001 3006 3009 3012 3013 3011 3012 3013 3011 3011 3014 3014 3017 3023 3026 3024 3021 3026 3031 3036 3037 3041 3044 3044 3049 3050
2944 2945 2946 2947 2948 2950 2952 2955 2959 2965 2973 2981 2983 2984 2983 2993 2998 2998 2988 2988 2992 2996 3003 3008 3009 3010 3010 3011 3010 3011 3009 3011 3012 3017 3020 3022 3022 3022 3025 3023 3027 3034 3032 3035 3038 3038 3040
2930 2930 2930 2931 2933 2935 2938 2942 2948 2956 2965 2970 2973 2973 2974 2984 2987 2982 2978 2982 2991 2992 2999 3001 3004 3005 3006 3008 3007 3007 3009 3006 3008 3011 3012 3015 3017 3019 3019 3022 3025 3028 3027 3029 3030 3035 3036
2914 2913 2913 2915 2917 2921 2926 2931 2938 2945 2953 2960 2961 2965 2968 2972 2970 2971 2975 2977 2984 2989 2993 2995 2997 3000 3003 3004 3006 3003 3001 3006 3007 3006 3008 3010 3008 3012 3015 3017 3018 3019 3020 3022 3026 3029 3026
2897 2897 2899 2902 2905 2910 2915 2921 2928 2935 2942 2950 2952 2955 2958 2958 2958 2964 2968 2971 2975 2980 2985 2990 2991 2995 2999 3000 3001 3000 3000 2999 2999 2998 3002 3004 3003 3001 3001 3006 3013 3015 3015 3019 3023 3023 3022
2885 2886 2887 2890 2894 2898 2904 2910 2916 2923 2930 2937 2938 2939 2942 2942 2945 2953 2960 2964 2969 2971 2976 2983 2985 2990 2995 2995 2997 2995 2998 2998 2998 2995 2994 2997 2997 2999 3000 3005 3009 3012 3013 3016 3018 3018 3014
2876 2876 2878 2880 2882 2886 2891 2897 2903 2910 2918 2922 2924 2928 2931 2936 2941 2947 2950 2949 2959 2966 2971 2974 2980 2986 2989 2989 2993 2993 2994 2995 2990 2992 2990 2994 2994 2997 2997 3001 3004 3007 3008 3007 3010 3010 3009
2864 2864 2866 2868 2871 2875 2880 2885 2891 2897 2905 2908 2913 2919 2926 2928 2933 2937 2929 2945 2950 2961 2964 2971 2977 2980 2982 2985 2987 2988 2989 2991 2991 2990 2991 2990 2993 2993 2993 2995 2998 2998 2996 3002 3001 3003 3004
2851 2852 2853 2856 2859 2862 2867 2871 2877 2885 2891 2898 2901 2910 2917 2914 2919 2918 2932 2940 2946 2954 2960 2967 2973 2975 2978 2983 2983 2983 2983 2984 2985 2986 2986 2983 2990 2991 2993 2995 2996 2983 2989 2988 2993 2997 3000
2838 2838 2840 2842 2845 2849 2853 2858 2864 2871 2878 2885 2893 2900 2904 2906 2914 2921 2925 2932 2945 2952 2956 2962 2967 2973 2973 2976 2978 2975 2975 2978 2977 2979 2981 2984 2985 2985 2992 2988 2983 2981 2985 2987 2987 2990 2993
2827 2826 2826 2828 2831 2835 2839 2845 2852 2859 2868 2875 2882 2892 2898 2902 2901 2916 2922 2928 2936 2945 2954 2955 2963 2968 2970 2972 2974 2971 2971 2968 2972 2972 2976 2980 2983 2985 2986 2987 2982 2980 2984 2987 2987 2982 2986
2814 2812 2812 2815 2818 2821 2826 2833 2841 2849 2857 2866 2873 2881 2889 2893 2898 2908 2911 2921 2930 2941 2947 2953 2957 2960 2964 2965 2967 2968 2968 2970 2968 2969 2972 2975 2977 2977 2980 2983 2980 2980 2982 2982 2984 2981 2978
2801 2799 2799 2800 2803 2807 2813 2820 2829 2838 2848 2856 2864 2872 2880 2888 2894 2900 2907 2913 2921 2931 2939 2947 2953 2952 2957 2960 2963 2964 2963 2966 2968 2967 2969 2972 2972 2974 2976 2980 2978 2978 2979 2980 2976 2979 2979
2789 2786 2786 2787 2790 2794 2800 2808 2817 2827 2839 2848 2857 2865 2875 2885 2889 2894 2901 2908 2914 2925 2935 2938 2945 2947 2950 2954 2957 2959 2960 2961 2963 2964 2968 2972 2971 2971 2971 2973 2976 2976 2975 2976 2977 2978 2979
Wind_Speed
30 31 31 31 31 31 32 32 32 32 32 31 32 32 31 30 30 30 30 28 28 27 29 30 31 31 29 27 19 23 21 18 19 19 19 20 19 19 21 17 18 23 21 24 24 20 16
32 32 32 32 33 33 33 34 33 33 34 34 34 34 33 31 30 31 30 29 29 29 29 30 31 32 32 29 25 26 23 25 26 26 23 23 22 18 22 21 20 21 21 26 25 23 19
34 34 34 34 35 34 34 34 35 35 35 36 36 36 34 34 33 33 31 30 30 29 31 31 33 34 36 22 27 27 24 21 21 25 24 22 21 22 24 22 20 23 27 29 27 22 22
36 37 36 36 36 35 35 35 35 34 35 35 35 35 36 34 35 34 33 32 32 33 32 33 33 37 39 24 27 25 27 22 24 23 20 20 23 23 26 25 20 20 22 24 8 7 12
37 37 37 37 36 37 35 35 34 34 34 34 34 33 34 35 34 34 34 33 34 35 34 37 36 37 32 25 25 27 25 23 26 27 27 20 22 26 25 25 23 23 25 22 13 5 9
38 38 38 37 36 36 35 35 34 33 32 33 33 32 32 32 33 31 30 32 33 35 37 40 42 35 25 20 17 17 17 18 26 29 28 27 25 29 30 30 28 22 23 21 19 9 16
38 38 37 37 36 35 34 34 35 35 33 33 32 30 31 32 29 27 27 28 31 34 40 41 44 39 25 20 15 19 24 24 21 30 33 32 30 40 39 35 32 22 16 14 13 9 14
39 39 38 37 37 35 35 33 33 34 33 33 31 31 30 31 27 23 22 23 29 33 41 43 43 48 40 34 33 21 23 23 25 26 33 33 35 35 34 31 31 26 24 24 19 12 16
41 40 39 39 38 37 35 35 34 34 33 31 31 29 30 31 25 22 20 20 25 30 38 46 43 50 41 37 45 35 28 24 26 28 34 40 36 29 35 33 30 31 29 22 16 14 18
42 40 40 40 40 38 37 36 36 34 33 31 30 28 27 27 22 18 17 17 18 22 22 37 33 35 33 37 51 37 37 35 34 33 30 34 33 22 18 31 31 32 24 19 18 23 22
42 41 41 41 40 39 38 37 36 35 33 30 29 27 25 24 16 11 14 11 12 12 5 11 9 17 13 25 27 15 32 41 44 36 32 32 30 37 33 18 23 30 23 21 18 22 20
41 41 40 40 39 39 38 37 36 36 34 31 29 27 25 26 13 13 17 9 7 4 10 4 3 10 12 11 17 7 24 42 48 37 37 37 27 27 28 30 31 21 21 20 20 24 9
39 37 37 36 35 35 35 35 36 36 34 30 27 25 25 26 12 19 19 16 9 12 7 3 3 1 8 13 14 19 15 34 35 35 43 33 38 33 27 21 22 27 23 4 5 5 6
33 33 33 33 33 33 34 36 36 37 35 29 23 22 24 22 17 21 23 26 17 15 26 4 5 4 1 9 17 17 21 22 40 33 12 32 16 40 33 37 23 30 28 12 5 4 5
34 35 35 35 36 36 37 39 39 38 35 26 24 27 29 25 20 23 30 34 21 22 11 10 24 22 15 11 7 9 27 31 27 41 23 15 21 21 27 35 34 30 23 20 23 3 1
36 37 38 39 40 40 41 41 39 38 30 24 28 30 33 27 25 26 37 50 38 25 17 12 3 6 11 13 9 5 12 7 28 31 36 13 8 14 12 25 33 35 23 15 13 5 4
39 39 40 43 44 44 44 39 36 33 28 29 30 32 39 31 30 36 48 47 40 39 19 18 22 16 8 11 14 20 6 8 6 19 27 36 14 2 26 22 32 30 28 20 18 17 6
43 46 48 49 49 43 38 35 34 32 30 32 33 37 39 34 39 47 53 53 43 11 29 30 26 30 25 17 12 11 18 5 6 13 17 38 29 34 21 11 18 30 28 29 18 5 6
53 51 47 41 37 34 33 33 33 36 34 35 38 39 38 29 44 51 49 43 46 46 27 27 25 24 27 23 17 10 17 15 15 12 5 16 30 19 20 33 35 24 31 23 20 21 27
37 36 34 35 34 34 35 36 36 38 39 39 40 41 38 38 46 47 50 42 41 44 47 39 31 23 21 17 20 21 19 16 16 14 11 14 31 35 28 14 22 21 29 36 27 27 23
30 30 31 32 34 35 38 39 40 42 44 43 44 45 47 48 53 51 46 43 43 42 37 37 48 43 31 21 21 26 27 25 30 22 11 11 23 32 37 35 28 26 26 29 32 36 33
28 29 30 31 30 32 36 40 41 42 42 44 51 54 49 56 41 51 47 52 43 36 38 32 30 26 17 34 42 13 14 14 24 22 17 6 8 26 33 37 30 33 33 31 25 17 25
32 33 35 36 36 37 37 37 39 38 39 45 54 56 50 44 48 45 57 52 43 41 41 35 29 26 21 20 13 17 25 20 18 16 20 18 3 7 19 26 24 24 36 40 40 26 9
34 34 34 34 34 35 36 38 41 45 44 49 51 55 51 52 51 60 44 44 47 36 34 30 18 24 17 10 9 22 27 24 20 18 16 19 16 3 2 12 5 20 27 25 49 33 28
31 32 34 36 37 38 39 40 42 42 49 50 54 51 59 55 41 45 42 42 39 31 35 33 28 22 6 16 16 11 23 27 29 26 19 20 16 7 5 18 10 7 7 17 22 32 23
31 32 34 35 35 36 37 36 36 39 45 49 48 53 48 57 57 42 44 44 36 32 29 33 21 18 22 16 16 20 8 14 6 7 19 20 17 14 11 6 5 4 10 14 11 29 31
31 34 34 35 38 37 38 39 38 36 40 50 56 51 47 45 53 45 44 40 36 31 28 25 19 27 27 23 19 21 23 14 8 6 9 20 23 27 18 14 12 7 10 18 18 9 13
28 30 30 30 32 34 37 38 41 42 40 50 54 54 49 44 43 31 43 46 41 36 34 28 24 27 34 33 23 16 17 23 19 8 5 11 9 12 11 6 9 7 11 14 20 19 15
31 29 29 31 33 34 36 37 39 43 42 47 54 55 51 43 18 46 29 26 36 35 25 30 26 23 35 27 29 13 21 14 25 18 22 13 14 10 11 12 13 10 12 18 16 17 12
Wind_Direction
271 271 270 269 268 268 267 265 264 264 266 265 267 267 267 266 268 267 266 267 267 267 268 269 271 271 270 269 268 265 252 244 243 249 248 255 251 247 250 250 253 255 249 241 257 266 282
273 271 271 271 271 269 268 267 266 265 264 262 263 264 265 265 265 266 265 265 266 266 266 266 267 268 267 268 267 269 260 253 254 254 250 251 255 252 253 249 251 253 253 246 254 261 271
274 274 273 272 272 271 269 268 268 268 267 265 264 262 263 264 264 263 263 264 265 264 265 266 267 268 264 264 264 263 265 260 252 248 251 243 242 239 247 255 249 255 257 250 261 272 273
274 275 275 275 274 274 271 270 268 267 266 266 265 265 266 265 264 263 264 263 264 263 264 266 266 269 268 263 259 263 257 250 244 242 240 236 236 231 238 247 240 248 254 268 263 293 310
272 272 273 273 274 274 273 272 271 270 269 268 268 266 265 268 267 267 267 263 262 263 265 265 266 267 277 267 260 254 256 248 241 233 239 226 230 234 233 238 245 247 255 257 257 268 311
272 272 272 270 270 270 273 273 272 272 270 270 270 272 271 271 271 271 272 268 265 264 260 261 264 268 265 256 245 232 238 233 233 227 230 228 228 230 230 224 231 238 249 265 263 249 310
269 269 270 270 269 269 268 270 272 272 272 272 272 273 273 273 276 281 277 272 269 263 258 255 258 258 253 246 247 239 240 234 235 227 222 228 228 232 235 233 241 245 247 259 253 261 305
268 268 268 269 269 269 270 269 268 269 272 270 270 270 272 273 275 281 282 281 273 270 263 261 259 261 256 255 251 236 231 227 230 231 225 226 233 242 244 241 241 244 251 256 262 260 288
268 267 267 267 267 268 269 269 268 268 266 265 264 265 268 270 276 276 280 280 278 277 281 266 262 264 261 250 254 240 239 236 234 231 229 230 241 245 241 241 236 239 241 250 252 285 294
266 266 266 267 268 268 268 268 268 269 268 267 266 263 267 270 270 272 271 269 275 283 292 277 279 270 261 254 257 246 234 235 233 231 227 235 237 236 218 236 234 240 232 235 255 273 273
264 264 263 265 267 268 267 267 268 268 269 268 269 270 268 265 264 260 248 247 268 283 307 276 258 254 242 231 242 257 235 225 228 228 219 226 228 230 229 232 227 237 228 234 262 276 247
263 263 264 263 263 264 265 266 267 268 268 267 266 265 265 263 252 224 229 220 208 212 248 257 259 270 259 240 226 190 214 213 229 229 235 241 236 243 242 241 241 228 244 251 278 258 239
262 262 262 262 263 263 265 264 265 265 264 261 260 257 253 257 238 222 216 185 188 222 249 248 178 149 253 258 258 220 220 217 211 212 229 234 236 235 233 234 232 232 240 266 240 212 220
263 262 261 261 263 267 268 266 264 263 262 256 248 244 243 248 242 221 204 186 219 253 235 213 178 224 271 256 275 235 233 232 214 219 223 220 235 230 221 222 219 220 222 207 212 198 246
264 263 262 262 264 267 270 267 260 257 255 243 238 233 239 237 239 219 201 198 223 238 248 277 249 268 267 310 265 246 229 242 246 214 217 215 231 225 234 224 217 218 223 240 234 163 161
267 266 264 264 266 267 271 266 253 249 242 226 230 229 234 234 228 217 210 218 228 222 225 227 307 288 263 257 285 281 217 249 257 238 215 229 264 245 240 218 225 226 221 207 212 156 220
270 268 265 265 264 266 268 257 243 235 224 218 225 227 235 230 219 204 219 219 233 224 210 234 244 250 256 265 256 260 248 237 314 242 232 223 231 253 203 203 213 218 224 226 230 222 170
271 271 271 269 268 264 254 240 230 222 215 215 221 229 232 224 215 214 221 226 223 194 224 230 240 236 246 249 286 270 251 230 326 322 265 232 231 242 227 212 228 224 223 220 218 185 210
276 274 270 265 257 249 237 228 227 215 209 215 222 227 233 233 220 221 227 236 234 233 231 221 240 245 251 256 258 273 269 252 288 305 317 267 222 226 245 251 241 235 224 226 230 248 220
276 273 267 259 250 240 232 228 224 218 212 212 224 225 225 227 233 231 228 231 239 239 239 232 240 241 235 237 237 255 269 259 280 272 264 261 229 220 226 236 230 244 233 228 242 242 229
272 267 260 255 247 239 233 228 224 222 221 211 223 223 224 213 227 230 234 233 235 239 243 243 244 245 239 250 248 253 255 271 269 279 270 283 244 237 232 236 240 246 237 227 234 247 230
269 261 255 252 246 240 238 233 230 226 223 215 217 219 223 227 230 229 226 233 228 237 240 241 240 245 242 252 247 252 228 258 285 290 268 302 265 238 248 234 228 231 236 220 242 244 249
265 260 257 253 245 238 235 234 230 224 215 217 218 220 224 232 226 232 234 226 234 236 248 248 254 258 253 247 268 267 241 244 264 281 263 263 289 220 232 234 226 242 235 235 246 250 248
266 261 257 252 246 241 238 235 232 224 213 214 219 219 218 228 227 233 234 237 232 229 245 252 250 248 265 220 259 251 254 250 246 250 258 280 268 348 302 189 218 243 264 261 237 251 246
271 263 257 251 247 243 241 237 231 227 213 212 217 220 221 225 229 228 232 235 237 241 244 253 252 242 245 216 259 277 250 257 252 245 252 252 257 269 260 217 257 288 274 234 235 254 237
272 266 259 252 246 242 237 229 225 223 216 215 213 220 230 229 229 233 235 237 229 233 238 249 258 225 227 248 231 240 251 260 252 221 240 230 240 232 220 269 223 302 298 231 253 242 227
278 271 261 253 247 244 237 230 219 222 217 211 213 218 225 228 233 229 229 226 230 228 245 250 238 223 221 220 234 236 233 233 264 211 187 205 218 229 238 236 267 269 262 207 236 235 197
279 272 259 250 243 234 228 226 220 215 220 210 210 216 222 227 230 230 231 234 234 238 240 242 237 222 218 225 232 227 234 226 235 210 202 235 222 218 229 227 243 202 240 230 274 255 263
283 267 259 251 241 235 228 222 217 212 210 207 210 214 219 219 224 226 236 248 248 246 251 236 230 228 217 218 224 234 232 226 230 239 234 253 240 264 248 256 268 255 246 266 270 230 243